Weather History for Luverne, MN

Change the Weather History Date:

Thursday, January 23, 2014

  Actual Average (KFSD) Record (KFSD)
Temperature  
Mean Temperature -2 °F 17 °F  
Max Temperature 8 °F 27 °F 57 °F (1981)
Min Temperature -11 °F 7 °F -23 °F (1948)
Degree Days  
Heating Degree Days 66 48  
Month to date heating degree days 1122  
Since 1 July heating degree days 4255  
Cooling Degree Days 0 0  
Month to date cooling degree days 0  
Year to date cooling degree days 0  
Moisture  
Dew Point -10 °F    
Average Humidity 69    
Maximum Humidity 78    
Minimum Humidity 57    
Precipitation  
Precipitation 0.00 in 0.02 in 0.32 in (2010)
Month to date precipitation 0.42  
Year to date precipitation 0.42  
Snow  
Snow 0.00 in 0.20 in 4.60 in (1969)
Month to date snowfall 5.6  
Since 1 July snowfall 22.5  
Snow Depth -    
Sea Level Pressure  
Sea Level Pressure 30.58 in    
Wind  
Wind Speed 10 mph (WNW)    
Max Wind Speed 20 mph    
Max Gust Speed 18 mph    
Visibility 10 miles    
Events      
T = Trace of Precipitation, MM = Missing Value Source: NWS Daily Summary

Daily Weather History Graph

Daily Weather History Graph

Search for Another Location

Airport:

Trip Planner

Search our weather history database for the weather conditions in past years. The results will help you decide how hot, cold, wet, or windy it might be!

Date:

Astronomy

Jan. 23, 2014 Rise Set
Actual Time 7:49 AM CST 5:24 PM CST
Civil Twilight 7:18 AM CST 5:55 PM CST
Nautical Twilight 6:43 AM CST 6:30 PM CST
Astronomical Twilight 6:09 AM CST 7:04 PM CST
Moon 12:10 AM CST (1/23) 11:11 AM CST (1/23)
Length of Visible Light 10h 36m
Length of Day
9h 34m
Waning Gibbous, 55% of the Moon is Illuminated
Jan 23
Waning Gibbous
Jan 23
Last Quarter
Jan 30
New
Feb 6
First Quarter
Feb 14
Full

Hourly Weather History & Observations

Time (CST) Temp. Windchill Dew Point Humidity Pressure Visibility Wind Dir Wind Speed Gust Speed Precip Events Conditions
12:14 AM -7.6 °F -27.5 °F -14.8 °F 71% 30.58 in 10.0 mi NNW 12.7 mph - N/A   Clear
12:35 AM -7.6 °F -27.5 °F -14.8 °F 71% 30.58 in 10.0 mi NNW 12.7 mph - N/A   Clear
12:55 AM -7.6 °F -26.6 °F -14.8 °F 71% 30.58 in 10.0 mi NNW 11.5 mph - N/A   Clear
1:14 AM -7.6 °F -24.6 °F -14.8 °F 71% 30.59 in 10.0 mi NNW 9.2 mph - N/A   Clear
1:35 AM -7.6 °F -23.4 °F -14.8 °F 71% 30.59 in 10.0 mi NNW 8.1 mph - N/A   Clear
1:54 AM -7.6 °F -24.6 °F -14.8 °F 71% 30.60 in 10.0 mi NNW 9.2 mph - N/A   Clear
2:15 AM -7.6 °F -25.7 °F -14.8 °F 71% 30.60 in 10.0 mi NNW 10.4 mph - N/A   Clear
2:35 AM -7.6 °F -24.6 °F -14.8 °F 71% 30.61 in 10.0 mi NNW 9.2 mph - N/A   Clear
2:54 AM -7.6 °F -25.7 °F -14.8 °F 71% 30.61 in 10.0 mi NNW 10.4 mph - N/A   Clear
3:15 AM -7.6 °F -25.7 °F -16.6 °F 65% 30.61 in 10.0 mi NNW 10.4 mph - N/A   Clear
3:35 AM -7.6 °F -25.7 °F -16.6 °F 65% 30.63 in 10.0 mi NNW 10.4 mph - N/A   Clear
3:55 AM -9.4 °F -26.8 °F -16.6 °F 71% 30.63 in 10.0 mi NNW 9.2 mph - N/A   Clear
4:14 AM -9.4 °F -27.9 °F -16.6 °F 71% 30.63 in 10.0 mi NNW 10.4 mph - N/A   Clear
4:35 AM -9.4 °F -26.8 °F -16.6 °F 71% 30.64 in 10.0 mi NNW 9.2 mph - N/A   Clear
4:55 AM -9.4 °F -26.8 °F -16.6 °F 71% 30.65 in 10.0 mi NNW 9.2 mph - N/A   Clear
5:14 AM -9.4 °F -26.8 °F -16.6 °F 71% 30.66 in 10.0 mi NW 9.2 mph - N/A   Clear
5:35 AM -9.4 °F -25.6 °F -16.6 °F 71% 30.67 in 10.0 mi NNW 8.1 mph - N/A   Clear
5:55 AM -9.4 °F -26.8 °F -16.6 °F 71% 30.67 in 10.0 mi NNW 9.2 mph - N/A   Clear
6:14 AM -9.4 °F -27.9 °F -16.6 °F 71% 30.68 in 10.0 mi NNW 10.4 mph - N/A   Clear
6:35 AM -9.4 °F -25.6 °F -16.6 °F 71% 30.69 in 10.0 mi NNW 8.1 mph - N/A   Clear
6:55 AM -9.4 °F -26.8 °F -16.6 °F 71% 30.70 in 10.0 mi NNW 9.2 mph - N/A   Clear
7:14 AM -9.4 °F -27.9 °F -16.6 °F 71% 30.70 in 10.0 mi NW 10.4 mph - N/A   Clear
7:35 AM -11.2 °F -27.8 °F -18.4 °F 70% 30.71 in 10.0 mi NW 8.1 mph - N/A   Clear
7:55 AM -11.2 °F -26.4 °F -18.4 °F 70% 30.71 in 10.0 mi NNW 6.9 mph - N/A   Clear
8:14 AM -11.2 °F -26.4 °F -18.4 °F 70% 30.72 in 10.0 mi NW 6.9 mph - N/A   Clear
8:35 AM -9.4 °F -22.7 °F -18.4 °F 65% 30.72 in 10.0 mi NW 5.8 mph - N/A   Clear
8:54 AM -9.4 °F -20.9 °F -16.6 °F 71% 30.73 in 10.0 mi NW 4.6 mph - N/A   Clear
9:15 AM -7.6 °F -20.6 °F -16.6 °F 65% 30.74 in 10.0 mi NW 5.8 mph - N/A   Clear
9:35 AM -7.6 °F -23.4 °F -16.6 °F 65% 30.74 in 10.0 mi NW 8.1 mph - N/A   Clear
9:54 AM -7.6 °F -24.6 °F -14.8 °F 71% 30.74 in 10.0 mi NW 9.2 mph - N/A   Clear
10:15 AM -5.8 °F -25.2 °F -14.8 °F 65% 30.74 in 10.0 mi NW 12.7 mph - N/A   Clear
10:35 AM -5.8 °F -22.4 °F -13.0 °F 71% 30.75 in 10.0 mi NW 9.2 mph - N/A   Clear
10:54 AM -4.0 °F -20.2 °F -13.0 °F 65% 30.75 in 10.0 mi NW 9.2 mph - N/A   Clear
11:15 AM -4.0 °F -22.1 °F -11.2 °F 71% 30.75 in 10.0 mi NW 11.5 mph - N/A   Clear
11:35 AM -2.2 °F -16.8 °F -9.4 °F 71% 30.74 in 10.0 mi WNW 8.1 mph - N/A   Clear
11:54 AM -0.4 °F -14.7 °F -9.4 °F 66% 30.73 in 10.0 mi NW 8.1 mph - N/A   Clear
12:15 PM -0.4 °F -14.7 °F -7.6 °F 72% 30.72 in 10.0 mi WNW 8.1 mph - N/A   Clear
12:35 PM 1.4 °F -14.5 °F -7.6 °F 66% 30.71 in 10.0 mi WNW 10.4 mph - N/A   Clear
12:55 PM 1.4 °F -12.5 °F -5.8 °F 72% 30.70 in 10.0 mi West 8.1 mph - N/A   Clear
1:14 PM 3.2 °F -11.3 °F -5.8 °F 66% 30.69 in 10.0 mi West 9.2 mph - N/A   Clear
1:35 PM 3.2 °F -12.2 °F -4.0 °F 72% 30.67 in 10.0 mi West 10.4 mph - N/A   Clear
1:55 PM 5.0 °F -10.0 °F -4.0 °F 66% 30.67 in 10.0 mi West 10.4 mph - N/A   Clear
2:14 PM 5.0 °F -10.0 °F -4.0 °F 66% 30.66 in 10.0 mi West 10.4 mph - N/A   Clear
2:35 PM 5.0 °F -10.8 °F -4.0 °F 66% 30.64 in 10.0 mi West 11.5 mph - N/A   Clear
2:55 PM 6.8 °F -9.3 °F -2.2 °F 67% 30.63 in 10.0 mi West 12.7 mph - N/A   Clear
3:15 PM 6.8 °F -8.6 °F -2.2 °F 67% 30.63 in 10.0 mi West 11.5 mph - N/A   Clear
3:35 PM 8.6 °F -5.5 °F -0.4 °F 67% 30.62 in 10.0 mi West 10.4 mph - N/A   Clear
3:54 PM 8.6 °F -4.7 °F -0.4 °F 67% 30.61 in 10.0 mi West 9.2 mph - N/A   Clear
4:15 PM 8.6 °F -2.6 °F -0.4 °F 67% 30.60 in 10.0 mi WSW 6.9 mph - N/A   Clear
4:35 PM 8.6 °F -2.6 °F -0.4 °F 67% 30.58 in 10.0 mi WSW 6.9 mph - N/A   Clear
4:54 PM 6.8 °F -4.8 °F -0.4 °F 72% 30.58 in 10.0 mi SW 6.9 mph - N/A   Clear
5:15 PM 6.8 °F -4.8 °F -2.2 °F 67% 30.57 in 10.0 mi SW 6.9 mph - N/A   Clear
5:35 PM 3.2 °F -9.1 °F -4.0 °F 72% 30.55 in 10.0 mi SSW 6.9 mph - N/A   Clear
5:54 PM 1.4 °F -9.9 °F -4.0 °F 78% 30.54 in 10.0 mi SSW 5.8 mph - N/A   Clear
6:15 PM 1.4 °F -11.3 °F -4.0 °F 78% 30.53 in 10.0 mi South 6.9 mph - N/A   Clear
6:35 PM 1.4 °F -12.5 °F -5.8 °F 72% 30.51 in 10.0 mi South 8.1 mph - N/A   Clear
6:54 PM 1.4 °F -12.5 °F -5.8 °F 72% 30.51 in 10.0 mi South 8.1 mph - N/A   Clear
7:15 PM -0.4 °F -15.7 °F -5.8 °F 78% 30.49 in 10.0 mi SSW 9.2 mph - N/A   Clear
7:35 PM 1.4 °F -12.5 °F -5.8 °F 72% 30.47 in 10.0 mi South 8.1 mph - N/A   Clear
7:54 PM 1.4 °F -14.5 °F -5.8 °F 72% 30.45 in 10.0 mi SSW 10.4 mph - N/A   Clear
8:15 PM 1.4 °F -13.5 °F -5.8 °F 72% 30.43 in 10.0 mi SSW 9.2 mph - N/A   Clear
8:35 PM 3.2 °F -13.9 °F -5.8 °F 66% 30.39 in 10.0 mi South 12.7 mph - N/A   Clear
8:54 PM 5.0 °F -11.6 °F -4.0 °F 66% 30.37 in 10.0 mi South 12.7 mph - N/A   Clear
9:15 PM 5.0 °F -12.3 °F -4.0 °F 66% 30.35 in 10.0 mi SSW 13.8 mph - N/A   Clear
9:35 PM 5.0 °F -13.0 °F -4.0 °F 66% 30.33 in 10.0 mi SSW 15.0 mph - N/A   Clear
9:55 PM 6.8 °F -12.9 °F -4.0 °F 61% 30.31 in 10.0 mi SSW 19.6 mph - N/A   Clear
10:15 PM 8.6 °F -8.9 °F -4.0 °F 57% 30.29 in 10.0 mi SSW 16.1 mph - N/A   Clear
10:35 PM 8.6 °F -6.3 °F -4.0 °F 57% 30.27 in 10.0 mi SSW 11.5 mph - N/A   Clear
10:55 PM 8.6 °F -7.7 °F -4.0 °F 57% 30.25 in 10.0 mi SSW 13.8 mph - N/A   Clear
11:15 PM 8.6 °F -7.7 °F -4.0 °F 57% 30.22 in 10.0 mi SSW 13.8 mph - N/A   Clear
11:35 PM 8.6 °F -6.3 °F -2.2 °F 62% 30.21 in 10.0 mi SSW 11.5 mph - N/A   Clear
11:55 PM 8.6 °F -8.3 °F -2.2 °F 62% 30.18 in 10.0 mi SSW 15.0 mph 18.4 mph N/A   Clear